Weather in Adzvavom

Russia / Komi Republic     66°35′38″N   59°17′18″E
temp.,
°C
wind,
m/s
gust,
m/s
humid.,
%
clouds,
%
prec.,
mm/h
press.,
hPa
HPBL,
m
18 january, mon
mon1800:00−29nnw4597100 0.0 100780
03:00−27nnw4697100 0.1 1009202
06:00−27nnw4797100 0.1 1009197
09:00−27nnw3596100 0.1 1011134
12:00−28wnw3496100 0.0 101338
15:00−29wnw4595100 0.0 101547
18:00−29w4498100 0.0 101535
21:00−31wsw569999 0.0 101668
19 january, tue
tue1900:00−32wsw459997 0.0 101753
03:00−33sw459898 0.0 101849
06:00−32ssw239895 0.0 101719
09:00−31se349270 0.0 101722
12:00−27se579384 0.0 1015182
15:00−25ese579992 0.8 1015174
18:00−24ese5698100 0.9 1014173
21:00−23ese4599100 1.4 1014120
20 january, wed
wed2000:00−22ese4599100 0.4 1013117
03:00−21e4599100 0.9 1013129
06:00−20e5698100 0.5 1012178
09:00−22e6798100 0.9 1013188
12:00−23e6898100 0.5 1013213
15:00−24e6897100 0.8 1013227
18:00−26ene6997100 0.3 1013238
21:00−26ene6996100 0.6 1013266
21 january, thu
thu2100:00−27ene71096100 0.1 1013294
03:00−27ene6109599 0.2 1014297
06:00−28ene6119697 0.1 1013277
09:00−31ene579895 0.1 101398
12:00−31ene579572 0.0 1013103
15:00−32ene459750 0.0 101348
18:00−32ene459855 0.0 101340
21:00−33ene459861 0.0 101341
22 january, fri
fri2200:00−32ene449729 0.0 101438
03:00−31ene459858 0.0 101355
06:00−30ne479778 0.0 1014111
09:00−29ne589786 0.1 1015199
12:00−28ne5895100 0.0 1016241
15:00−30ne5895100 0.0 1017163
18:00−31ne579597 0.0 1019142
21:00−33ne579398 0.0 1020121